IRIDIUM 36 (24967 NORAD) Tracking and Keplerian Element Data

This shows tracking and keplerian element data for the satellite.

Feedback or suggestion? Click here.




ElementValue
Catalog24967
NameIRIDIUM 36
Epoch Orbit43307
Epoch Day34.91545541
Epoch Year2025
RAAN228.9329
Inclination86.3941
Eccentricity0.0002256
Argument of Perigee90.601
Mean Anonmoly269.5446
Mean Motion14.3739056
Decay Rate9.17E-06
L11 24967U 97056C 25034.91545541 .00000917 00000+0 30069-3 0 9990
L22 24967 86.3941 228.9329 0002256 90.6010 269.5446 14.37390560433078



Live tracking and technical data element details for IRIDIUM 36 (NORAD 24967). IRIDIUM 36 can be tracked NOW for your location showing map with azimuth and elevation plus other details from your city location.







IsCatalogInMostPopularTable: catalog: 24967, numindb: 533
Update: records affected: 1



GetName: 24967 IRIDIUM 36

Hit Count: updated at: Fri, 16 May 2025 11:52:30 GMT